Location: Gallinara
(44.0333°N, 8.2333°E)
Time: 10:56:27
(UTC+00:00)

ADEOS II - Pass Details

Date: 25 September 2020
Orbit: 799 x 801 km, 98.5° (Epoch: 24 October)

Event Time Altitude Azimuth Distance (km) Brightness Sun altitude
Rises 02:12:58 0° 10° (N) 3,318 5.9 -32.2°
Reaches altitude 10° 02:15:20 10° 7° (N) 2,383 5.0 -31.9°
Enters shadow 02:18:19 34° 353° (N) 1,305 3.3 -31.4°
